When you browse on this site, cookies collect data to enhance your experience and personalize the content and advertising you see.
Visit our Privacy Policy to learn more. By continuing to use the site, you agree to this use of cookies and data.
  • In Switzerland
  • List of Countries
  • For 7 days
  • Water Temperature
  • Satellite Maps
  • Weather Map
  • Weather Widgets
  • user-avatar
    Login

    Hourly Weather Quito

    Today, 20 March, Wednesday

    Time Temperature Precipitation Wind Pressure Humidity
    00:00 +18°C° 0 mm 1 mps 621 mmHg 72%
    01:00 +18°C° 0 mm 1 mps 621 mmHg 74%
    02:00 +18°C° 0 mm 1 mps 621 mmHg 73%
    03:00 +18°C° 0 mm 1 mps 621 mmHg 73%
    04:00 +18°C° 0 mm 1 mps 621 mmHg 72%
    05:00 +19°C° 0 mm 1 mps 621 mmHg 73%
    06:00 +19°C° 0 mm 1 mps 622 mmHg 75%
    07:00 +19°C° 0 mm 1 mps 622 mmHg 76%
    08:00 +20°C° 0 mm 1 mps 622 mmHg 75%
    09:00 +21°C° 0 mm 1 mps 623 mmHg 75%
    10:00 +20°C° 0 mm 0 mps 623 mmHg 74%
    11:00 +24°C° 0 mm 1 mps 623 mmHg 64%
    12:00 +27°C° 0 mm 1 mps 623 mmHg 54%
    13:00 +29°C° 0 mm 2 mps 624 mmHg 45%
    14:00 +28°C° 0 mm 2 mps 623 mmHg 50%
    15:00 +27°C° 0 mm 2 mps 622 mmHg 55%
    16:00 +26°C° 0 mm 2 mps 622 mmHg 60%
    17:00 +24°C° 5.4 mm 2 mps 621 mmHg 71%
    18:00 +21°C° 5.4 mm 2 mps 621 mmHg 81%
    19:00 +19°C° 5.4 mm 2 mps 620 mmHg 92%
    20:00 +18°C° 2.7 mm 2 mps 621 mmHg 92%
    21:00 +18°C° 2.7 mm 2 mps 622 mmHg 92%
    22:00 +17°C° 2.7 mm 2 mps 622 mmHg 92%
    23:00 +17°C° 0.9 mm 2 mps 622 mmHg 91%

    Tomorrow, 21 March, Thursday

    Time Temperature Precipitation Wind Pressure Humidity
    00:00 +17°C° 0.9 mm 2 mps 622 mmHg 91%
    01:00 +18°C° 0.9 mm 1 mps 622 mmHg 90%
    02:00 +18°C° 0 mm 1 mps 622 mmHg 91%
    03:00 +16°C° 0 mm 2 mps 621 mmHg 92%
    04:00 +16°C° 0 mm 2 mps 621 mmHg 94%
    05:00 +16°C° 0 mm 2 mps 621 mmHg 93%
    06:00 +16°C° 0 mm 2 mps 622 mmHg 93%
    07:00 +17°C° 0 mm 2 mps 622 mmHg 92%
    08:00 +18°C° 0 mm 2 mps 623 mmHg 88%
    09:00 +20°C° 0 mm 1 mps 623 mmHg 85%
    10:00 +21°C° 0 mm 1 mps 624 mmHg 81%
    11:00 +23°C° 0 mm 1 mps 623 mmHg 74%
    12:00 +24°C° 0 mm 1 mps 623 mmHg 67%
    13:00 +26°C° 0 mm 1 mps 623 mmHg 61%
    14:00 +25°C° 0.7 mm 1 mps 623 mmHg 65%
    15:00 +25°C° 0.7 mm 1 mps 622 mmHg 70%
    16:00 +25°C° 0.7 mm 1 mps 622 mmHg 75%
    17:00 +23°C° 0.4 mm 1 mps 622 mmHg 78%
    18:00 +21°C° 0.4 mm 1 mps 622 mmHg 82%
    19:00 +20°C° 0.4 mm 1 mps 622 mmHg 86%
    20:00 +20°C° 0.9 mm 1 mps 622 mmHg 87%
    21:00 +19°C° 0.9 mm 1 mps 623 mmHg 89%
    22:00 +19°C° 0.9 mm 1 mps 623 mmHg 90%
    23:00 +19°C° 0.3 mm 1 mps 623 mmHg 90%

    Day after tomorrow, 22 March, Friday

    Time Temperature Precipitation Wind Pressure Humidity
    00:00 +17°C° 0.3 mm 0 mps 623 mmHg 90%
    01:00 +16°C° 0.3 mm 0 mps 623 mmHg 89%
    02:00 +16°C° 0.2 mm 0 mps 622 mmHg 91%
    03:00 +15°C° 0.2 mm 0 mps 621 mmHg 92%
    04:00 +15°C° 0.2 mm 0 mps 621 mmHg 93%
    05:00 +16°C° 0 mm 1 mps 621 mmHg 92%
    06:00 +18°C° 0 mm 1 mps 622 mmHg 90%
    07:00 +19°C° 0 mm 1 mps 622 mmHg 88%
    08:00 +21°C° 0 mm 1 mps 624 mmHg 77%
    09:00 +24°C° 0 mm 1 mps 625 mmHg 67%
    10:00 +27°C° 0 mm 1 mps 626 mmHg 56%
    11:00 +28°C° 0 mm 2 mps 625 mmHg 52%
    12:00 +28°C° 0 mm 3 mps 625 mmHg 48%
    13:00 +29°C° 0 mm 4 mps 624 mmHg 44%
    14:00 +28°C° 0 mm 3 mps 624 mmHg 49%
    15:00 +28°C° 0 mm 3 mps 623 mmHg 54%
    16:00 +27°C° 0 mm 2 mps 623 mmHg 58%
    17:00 +25°C° 0 mm 1 mps 623 mmHg 64%
    18:00 +23°C° 0 mm 1 mps 622 mmHg 70%
    19:00 +19°C° 0 mm 0 mps 622 mmHg 75%
    20:00 +18°C° 1.1 mm 0 mps 623 mmHg 81%
    21:00 +18°C° 1.1 mm 0 mps 623 mmHg 86%
    22:00 +19°C° 1.1 mm 1 mps 623 mmHg 92%
    23:00 +19°C° 0.7 mm 1 mps 623 mmHg 92%

    23 March, Saturday

    Time Temperature Precipitation Wind Pressure Humidity
    00:00 +18°C° 0.7 mm 1 mps 623 mmHg 93%
    01:00 +18°C° 0.7 mm 1 mps 623 mmHg 93%
    02:00 +18°C° 0 mm 1 mps 622 mmHg 93%
    03:00 +16°C° 0 mm 1 mps 622 mmHg 92%
    04:00 +16°C° 0 mm 1 mps 621 mmHg 92%
    05:00 +16°C° 0 mm 1 mps 622 mmHg 91%
    06:00 +18°C° 0 mm 1 mps 622 mmHg 90%
    07:00 +18°C° 0 mm 1 mps 623 mmHg 89%
    08:00 +21°C° 0 mm 1 mps 624 mmHg 78%
    09:00 +24°C° 0 mm 1 mps 625 mmHg 67%
    10:00 +27°C° 0 mm 1 mps 626 mmHg 55%
    11:00 +28°C° 0 mm 2 mps 625 mmHg 53%
    12:00 +28°C° 0 mm 3 mps 624 mmHg 50%
    13:00 +29°C° 0 mm 4 mps 624 mmHg 47%
    14:00 +28°C° 0 mm 3 mps 623 mmHg 50%
    15:00 +28°C° 0 mm 3 mps 623 mmHg 53%
    16:00 +27°C° 0 mm 2 mps 622 mmHg 56%
    17:00 +25°C° 0.7 mm 2 mps 622 mmHg 65%
    18:00 +23°C° 0.7 mm 1 mps 622 mmHg 73%
    19:00 +18°C° 0.7 mm 0 mps 621 mmHg 82%
    20:00 +20°C° 0.1 mm 1 mps 621 mmHg 83%
    21:00 +19°C° 0.1 mm 1 mps 622 mmHg 85%
    22:00 +19°C° 0.1 mm 1 mps 622 mmHg 87%
    23:00 +18°C° 0.3 mm 1 mps 622 mmHg 89%

    24 March, Sunday

    Time Temperature Precipitation Wind Pressure Humidity
    00:00 +18°C° 0.3 mm 1 mps 621 mmHg 91%
    01:00 +15°C° 0.3 mm 0 mps 621 mmHg 93%
    02:00 +16°C° 0.2 mm 1 mps 621 mmHg 93%
    03:00 +16°C° 0.2 mm 1 mps 621 mmHg 93%
    04:00 +16°C° 0.2 mm 1 mps 621 mmHg 93%
    05:00 +18°C° 0 mm 1 mps 621 mmHg 91%
    06:00 +18°C° 0 mm 1 mps 622 mmHg 90%
    07:00 +19°C° 0 mm 1 mps 622 mmHg 89%
    08:00 +21°C° 0.3 mm 1 mps 623 mmHg 81%
    09:00 +23°C° 0.3 mm 2 mps 624 mmHg 74%
    10:00 +25°C° 0.3 mm 2 mps 624 mmHg 66%
    11:00 +26°C° 0 mm 3 mps 624 mmHg 62%
    12:00 +26°C° 0 mm 3 mps 623 mmHg 58%
    13:00 +27°C° 0 mm 4 mps 623 mmHg 54%
    14:00 +26°C° 1.3 mm 3 mps 622 mmHg 61%
    15:00 +25°C° 1.3 mm 2 mps 622 mmHg 69%
    16:00 +24°C° 1.3 mm 1 mps 621 mmHg 76%
    17:00 +22°C° 0.4 mm 1 mps 621 mmHg 80%
    18:00 +21°C° 0.4 mm 1 mps 621 mmHg 84%
    19:00 +19°C° 0.4 mm 1 mps 621 mmHg 88%
    20:00 +19°C° 1.9 mm 1 mps 621 mmHg 89%
    21:00 +19°C° 1.9 mm 1 mps 621 mmHg 91%
    22:00 +19°C° 1.9 mm 1 mps 621 mmHg 92%
    23:00 +18°C° 0.3 mm 1 mps 621 mmHg 92%

    25 March, Monday

    Time Temperature Precipitation Wind Pressure Humidity
    00:00 +18°C° 0.3 mm 1 mps 621 mmHg 92%
    01:00 +18°C° 0.3 mm 1 mps 621 mmHg 92%
    02:00 +18°C° 0.3 mm 1 mps 620 mmHg 93%
    03:00 +16°C° 0.3 mm 1 mps 620 mmHg 94%
    04:00 +16°C° 0.3 mm 1 mps 620 mmHg 95%
    05:00 +18°C° 0.2 mm 1 mps 621 mmHg 93%
    06:00 +18°C° 0.2 mm 1 mps 621 mmHg 91%
    07:00 +17°C° 0.2 mm 0 mps 622 mmHg 89%
    08:00 +21°C° 0 mm 1 mps 623 mmHg 80%
    09:00 +24°C° 0 mm 1 mps 623 mmHg 71%
    10:00 +26°C° 0 mm 2 mps 624 mmHg 62%
    11:00 +26°C° 0 mm 2 mps 624 mmHg 58%
    12:00 +27°C° 0 mm 3 mps 623 mmHg 54%
    13:00 +27°C° 0 mm 3 mps 623 mmHg 49%
    14:00 +27°C° 0.2 mm 3 mps 622 mmHg 55%
    15:00 +26°C° 0.2 mm 2 mps 622 mmHg 61%
    16:00 +25°C° 0.2 mm 2 mps 622 mmHg 66%
    17:00 +23°C° 0.9 mm 2 mps 621 mmHg 74%
    18:00 +20°C° 0.9 mm 2 mps 621 mmHg 82%
    19:00 +18°C° 0.9 mm 2 mps 621 mmHg 90%
    20:00 +17°C° 0.2 mm 2 mps 621 mmHg 91%
    21:00 +17°C° 0.2 mm 2 mps 621 mmHg 91%
    22:00 +17°C° 0.2 mm 2 mps 622 mmHg 92%
    23:00 +18°C° 0.3 mm 1 mps 622 mmHg 93%
    Show more